[[{"header":{"parameterUnit":"m.s-1","parameterCategory":1,"la1":30.2992,"la2":30.254,"lo1":-89.0895,"lo2":-89.0443,"dy":0.0025,"dx":0.0025,"nx":19,"ny":19,"refTime":"2026-04-02T09:00:00:Z","depth":0,"parameterNumber":2,"parameterNumberName":"U-component_of_WINDS"},"data":[0,0,0,-5.6937,-5.6939,-5.7053,-5.7053,-5.722,-5.7222,0,0,0,0,0,0,0,0,0,0,0,-5.6918,-5.692,-5.6936,-5.694,-5.7053,-5.7053,-5.722,-5.7222,0,0,0,0,0,0,0,0,0,0,0,-5.6917,-5.6919,-5.6921,-5.694,-5.7053,-5.7053,-5.722,-5.7126,0,0,0,0,0,0,0,0,0,0,-5.7012,-5.701,-5.6919,-5.6921,-5.6941,-5.7053,-5.7053,-5.7121,-5.7132,-5.7179,0,-5.7227,0,-5.7227,-5.7235,-5.7236,0,0,0,-5.6928,-5.7001,-5.7018,-5.6922,-5.6942,-5.7053,-5.6998,-5.7127,-5.7139,-5.7193,-5.7229,-5.7234,-5.723,-5.7236,-5.7237,-5.7552,-5.7554,0,0,-5.6922,-5.6946,-5.701,-5.7027,-5.7013,-5.6995,-5.7002,-5.7134,-5.7173,-5.7229,-5.7238,-5.7233,-5.7237,-5.7239,-5.755,-5.7553,0,0,0,-5.6912,-5.6942,-5.6956,-5.7021,-5.7039,-5.6998,-5.7007,-5.7167,-5.717,-5.7239,-5.7235,-5.7238,-5.7241,-5.7548,-5.7551,-5.7674,0,0,0,-5.6907,-5.6936,-5.6953,-5.697,-5.7038,-5.7105,-5.7038,-5.716,-5.7175,-5.7234,-5.7239,-5.7243,-5.7546,-5.755,-5.7666,-5.7728,0,0,0,-5.6905,-5.6936,-5.6958,-5.6971,-5.7021,-5.7102,-5.7112,-5.7163,-5.7173,-5.7236,-5.7243,-5.7544,-5.7549,-5.7659,-5.7715,-5.7816,0,0,0,-5.691,-5.7066,-5.696,-5.7132,-5.702,-5.7179,-5.7111,-5.7228,-5.7297,-5.7239,-5.7546,-5.7551,-5.7656,-5.7708,-5.7809,-5.7905,-5.7948,0,0,-5.712,-5.7092,-5.7191,-5.71,-5.7284,-5.7159,-5.7361,-5.74,-5.7383,-5.7497,-5.7504,-5.7669,-5.7715,-5.7815,-5.8182,-5.8217,0,0,0,-5.7265,-5.7337,-5.738,-5.7448,-5.7483,-5.7517,-5.7523,-5.7537,-5.7632,-5.7447,-5.7733,-5.7759,-5.7817,-5.7861,-5.7891,-5.7937,-5.7573,-5.7573,-5.7572,-5.7596,-5.7567,-5.7728,-5.7713,-5.7779,-5.7784,-5.7835,-5.7855,-5.7806,-5.7874,-5.7906,-5.8133,-5.8186,-5.8208,-5.8257,-5.7956,-5.7957,-5.7957,-5.7958,-5.7898,-5.7994,-5.7926,-5.8058,-5.8026,-5.8136,-5.8147,-5.8108,-5.8205,-5.8106,-5.8155,-5.8049,-5.8246,-5.8288,-5.7967,-5.7965,-5.7964,-5.7963,-5.7962,-5.8109,-5.815,-5.8166,-5.826,-5.8336,-5.8315,-5.8411,-5.8379,-5.8349,-5.8398,-5.8427,-5.8425,-5.8417,-5.8415,-5.8416,-5.8416,-5.8417,-5.8418,-5.8418,-5.8321,-5.8336,-5.8421,-5.8472,-5.851,-5.8557,-5.8564,-5.8601,-5.8633,-5.8601,-5.8602,-5.8544,-5.8272,-5.8203,-5.843,-5.8428,-5.8426,-5.8425,-5.8425,-5.8635,-5.8559,-5.8691,-5.8731,-5.8786,-5.8863,-5.8821,-5.8899,-5.8924,-5.8972,-5.8905,-5.871,-5.8678,-5.8655,-5.8597,-5.8913,-5.8913,-5.8913,-5.8913,-5.8812,-5.8793,-5.8921,-5.8985,-5.9044,-5.902,-5.9168,-5.9175,-5.917,-5.9184,-5.9134,-5.9056,-5.9033,-5.9015,-5.8983,-5.8929,-5.9322,-5.9322,-5.9322,-5.9002,-5.8988,-5.9121,-5.9116,-5.9158,-5.9194,-5.9332,-5.9406,-5.9385,-5.9338,-5.9193,-5.9176,-5.9049,-5.901,-5.8957,-5.891,-5.8809,0,0]},{"header":{"parameterUnit":"m.s-1","parameterCategory":1,"la1":30.2992,"la2":30.254,"lo1":-89.0895,"lo2":-89.0443,"dy":0.0025,"dx":0.0025,"nx":19,"ny":19,"refTime":"2026-04-02T09:00:00:Z","depth":0,"parameterNumber":3,"parameterNumberName":"V-component_of_WINDS"},"data":[0,0,0,3.1039,3.1042,3.1173,3.1174,3.1329,3.133,0,0,0,0,0,0,0,0,0,0,0,3.0994,3.0995,3.1039,3.1042,3.1173,3.1174,3.1328,3.133,0,0,0,0,0,0,0,0,0,0,0,3.0994,3.0995,3.0996,3.1043,3.1173,3.1174,3.1328,3.1233,0,0,0,0,0,0,0,0,0,0,3.1108,3.1061,3.0995,3.0996,3.1044,3.1173,3.1174,3.1229,3.1239,3.1264,0,3.1286,0,3.1311,3.134,3.134,0,0,0,3.1047,3.1052,3.1093,3.0996,3.1045,3.1173,3.1115,3.1235,3.1247,3.1278,3.1288,3.1294,3.1313,3.1341,3.1341,3.1476,3.1476,0,0,3.1039,3.1014,3.1085,3.1101,3.1081,3.1111,3.1119,3.1242,3.1251,3.1289,3.1298,3.1316,3.1342,3.1343,3.1475,3.1476,0,0,0,3.1016,3.1009,3.1047,3.1094,3.1118,3.1115,3.1124,3.1246,3.1261,3.13,3.1318,3.1342,3.1344,3.1475,3.1475,3.1474,0,0,0,3.1012,3.0995,3.1044,3.1029,3.1116,3.1184,3.1125,3.1252,3.1267,3.1317,3.1342,3.1346,3.1474,3.1475,3.1473,3.1477,0,0,0,3.0988,3.0992,3.1009,3.1028,3.1084,3.1183,3.1205,3.1256,3.1277,3.134,3.1346,3.1474,3.1475,3.1472,3.1476,3.1506,0,0,0,3.0955,3.1004,3.1009,3.107,3.1082,3.1181,3.1204,3.1278,3.1332,3.1343,3.1474,3.1475,3.1472,3.1475,3.1505,3.1528,3.1535,0,0,3.1002,3.1008,3.1047,3.1055,3.1147,3.1163,3.1254,3.1326,3.1354,3.1433,3.1437,3.1473,3.1475,3.1506,3.1581,3.1587,0,0,0,3.1053,3.1081,3.111,3.1161,3.1219,3.1269,3.133,3.1357,3.1426,3.139,3.1492,3.1495,3.1514,3.1526,3.153,3.1549,3.148,3.148,3.1479,3.1084,3.1119,3.1186,3.1237,3.1286,3.135,3.1393,3.144,3.1459,3.1483,3.1507,3.1549,3.1562,3.1566,3.1584,3.1521,3.1521,3.1521,3.1521,3.1158,3.1203,3.123,3.1304,3.1341,3.1403,3.1466,3.1478,3.1541,3.1533,3.1551,3.1541,3.157,3.1589,3.1521,3.1521,3.1521,3.1521,3.1521,3.1183,3.1211,3.1244,3.1323,3.138,3.1429,3.1489,3.152,3.1548,3.1567,3.1596,3.1596,3.1601,3.1578,3.1579,3.1579,3.1579,3.1579,3.1579,3.1197,3.1234,3.1282,3.1349,3.1386,3.144,3.1505,3.1542,3.1592,3.1609,3.1609,3.1627,3.1567,3.1552,3.1581,3.1581,3.1581,3.1581,3.158,3.1261,3.1252,3.1325,3.1363,3.1445,3.1499,3.1538,3.1612,3.1647,3.1676,3.169,3.164,3.1648,3.1645,3.1632,3.1682,3.1682,3.1682,3.1682,3.1283,3.1291,3.1374,3.1433,3.1494,3.1537,3.1619,3.167,3.1721,3.1745,3.1742,3.1728,3.1723,3.1734,3.1729,3.1718,3.1788,3.1788,3.1788,3.1325,3.134,3.1405,3.1457,3.1523,3.1579,3.1657,3.1723,3.1779,3.1793,3.1765,3.176,3.1738,3.1729,3.1743,3.1734,3.1714,0,0]}]]